Location: Colebrook
(42.0017°N, 73.0973°W)
Time: 07:49:53
(UTC-04:00)

ISS - Pass Details

Date: 06 October 2021
Orbit: 417 x 423 km, 51.6° (Epoch: 16 October)

Event Time Altitude Azimuth Distance (km) Brightness Sun altitude
Rises 19:47:49 0° 294° (WNW) 2,362 1.5 -16.2°
Reaches altitude 10° 19:50:12 10° 279° (W) 1,496 0.4 -16.6°
Maximum altitude 19:52:52 22° 226° (SW) 964 -1.5 -17.1°
Enters shadow 19:55:23 11° 175° (S) 1,446 -1.2 -17.6°
